Tracking 26922 objects as of 1-Feb-2023
HD Live streaming from Space Station
objects crossing your sky now

COSMOS 886 DEB

Track COSMOS 886 DEB now!
10-day predictions


NORAD ID: 9724
Int'l Code: 1976-126V
Perigee: 585.0 km
Apogee: 1,818.5 km
Inclination: 65.8 °
Period: 109.3 minutes
Semi major axis: 7572 km
RCS: 0.0406 m2 (small)
Launch date: December 27, 1976
Source: Commonwealth of Independent States (former USSR) (CIS)
Launch site: TYURATAM MISSILE AND SPACE COMPLEX (TTMTR)

Note: This is SATELLITE DEBRIS
Your satellite tracking list
Your tracking list is empty




NASA's NSSDC Master Catalog

Two Line Element Set (TLE):
1  9724U 76126V   23031.48520418  .00002843  00000-0  12823-2 0  9990
2  9724  65.8220  59.5930 0814401 358.7099   1.1825 13.17413510174811
Source of the keplerian elements: AFSPC